Flag for Taiwan Weather past 2 weeks in Taipei, Taiwan

Now
84 °F

Partly cloudy.


Feels Like: 91 °F
Forecast: 78 / 89 °F
Wind: 9 mph from East

Location: Sungshan / Taipei

Current Time: Aug 21, 2014 at 7:14:58 PM

Latest Report: Aug 21, 2014 at 6:30 PM


Visibility: N/A

Pressure: 29.83 "Hg

Humidity: 70%

Dew point: 73 °F

Location of TaipeiLocation

Historic Weather in Taipei — Graph

°F

Taipei temperature yesterday

Maximum temperature yesterday: 91 °F (at 11:00 AM)
Minimum temperature yesterday: 77 °F (at 4:00 AM)
Average temperature yesterday: 83 °F

Past Weeks' High & Low Weather Summary

 TemperatureHumidityPressure
High95 °F (Aug 8, 12:00 PM)100% (Aug 19, 4:57 PM)29.89 "Hg (Aug 19, 4:57 PM)
Low75 °F (Aug 19, 4:30 PM)41% (Aug 14, 2:30 PM)29.53 "Hg (Aug 7, 2:30 PM)
Average86 °F69%29.70 "Hg
* Reported Aug 6 6:00 PM — Aug 21 6:00 PM, Taipei, Weather by CustomWeather, © 2014

Note: Actual official high and low records may vary slightly from our data, if they occured in-between our weather recording intervals... More about our weather records

Advertising

Taipei weather history for previous 24 hours

 ConditionsComfort  
Time TempWeatherWind HumidityBarometerVisibility
6:00 PM
Aug 21
86 °FBroken clouds.12 mph66%29.83 "HgN/A
5:30 PM86 °FBroken clouds.12 mph66%29.80 "HgN/A
5:00 PM86 °FBroken clouds.10 mph70%29.80 "HgN/A
4:30 PM88 °FBroken clouds.3 mph62%29.80 "HgN/A
4:00 PM88 °FBroken clouds.6 mph59%29.80 "HgN/A
3:30 PM90 °FBroken clouds.5 mph55%29.80 "HgN/A
3:04 PM90 °FBroken clouds.7 mph52%29.80 "HgN/A
2:30 PM91 °FBroken clouds.8 mph49%29.77 "HgN/A
2:00 PM91 °FBroken clouds.10 mph52%29.80 "HgN/A
1:49 PM91 °FBroken clouds.9 mph52%29.80 "HgN/A
1:30 PM91 °FBroken clouds.10 mph52%29.83 "HgN/A
1:00 PM91 °FScattered clouds.8 mph52%29.83 "HgN/A
12:30 PM93 °FScattered clouds.9 mph47%29.80 "HgN/A
12:00 PM93 °FScattered clouds.9 mph44%29.83 "HgN/A
11:30 AM91 °FScattered clouds.8 mph49%29.86 "HgN/A
11:00 AM91 °FScattered clouds.5 mph49%29.86 "HgN/A
10:30 AM90 °FScattered clouds.5 mph52%29.86 "HgN/A
10:00 AM90 °FScattered clouds.5 mph49%29.86 "HgN/A
9:30 AM90 °FScattered clouds.3 mph55%29.86 "HgN/A
9:00 AM88 °FPassing clouds.3 mph62%29.86 "HgN/A
8:30 AM86 °FScattered clouds.6 mph66%29.86 "HgN/A
7:30 AM84 °FScattered clouds.No wind70%29.86 "HgN/A
7:00 AM82 °FScattered clouds.3 mph74%29.86 "HgN/A
6:30 AM81 °FPartly sunny.1 mph79%29.86 "HgN/A
6:00 AM79 °FPartly sunny.No wind84%29.86 "HgN/A
5:00 AM79 °FPassing clouds.5 mph84%29.86 "HgN/A
4:00 AM79 °FPassing clouds.1 mph84%29.83 "HgN/A
3:00 AM79 °FPassing clouds.2 mph84%29.83 "HgN/A
2:00 AM79 °FPassing clouds.3 mph84%29.83 "HgN/A
1:00 AM79 °FPassing clouds.5 mph84%29.86 "HgN/A
12:00 AM79 °FPassing clouds.No wind84%29.86 "HgN/A
11:30 PM
Aug 20
79 °FPassing clouds.6 mph84%29.89 "HgN/A
11:00 PM81 °FPassing clouds.3 mph79%29.89 "HgN/A
10:30 PM81 °FPartly cloudy.3 mph79%29.89 "HgN/A
10:00 PM81 °FPassing clouds.3 mph84%29.89 "HgN/A
9:30 PM81 °FPassing clouds.6 mph84%29.89 "HgN/A
9:00 PM81 °FPassing clouds.6 mph79%29.89 "HgN/A
8:30 PM81 °FPassing clouds.8 mph84%29.89 "HgN/A
7:30 PM81 °FPartly cloudy.6 mph84%29.83 "HgN/A
7:00 PM81 °FPartly cloudy.6 mph79%29.83 "HgN/A
Weather by CustomWeather, © 2014

See weather overviewHow to use our weather pages